GFSNE_850_rhum_132.txt.gz
RH
12 13 12 13 15 20 29 63 92 100 99 100 100 97 93 92 94 93 84 79 91 96 92 98 100 100 100 100 98 96 93 91 90 90 90 94 93 96
13 14 14 14 14 15 18 25 40 79 98 99 86 64 64 70 75 76 86 91 88 86 89 86 91 96 87 82 83 85 84 85 86 92 97 89 87 87
17 16 18 18 20 20 21 21 23 22 69 66 63 27 20 17 17 18 27 52 74 72 73 58 36 56 71 57 63 66 69 76 78 77 85 91 91 88
19 21 23 25 30 32 46 45 33 31 30 44 37 25 24 24 22 21 21 22 17 16 26 24 14 11 12 31 48 47 50 57 64 77 83 86 90 92
24 25 27 30 49 58 84 91 83 66 51 52 66 40 28 24 26 29 28 24 25 21 19 20 17 14 13 11 13 20 29 34 48 63 75 86 92 94
30 31 31 31 32 43 68 87 93 96 96 96 95 96 95 90 85 60 37 32 29 29 26 23 21 18 15 14 14 12 11 13 14 26 66 74 84 87
35 34 35 36 35 37 42 84 96 98 99 100 98 96 90 90 95 96 94 77 67 47 40 32 27 23 19 16 15 15 14 15 12 10 12 32 73 88
35 36 35 36 38 42 46 53 58 93 96 96 100 100 93 91 93 96 99 100 96 94 80 47 50 32 28 22 21 18 15 16 14 14 11 12 13 63
35 37 38 40 41 43 48 57 72 66 66 82 98 98 96 98 100 99 100 100 100 100 97 95 69 56 39 26 24 22 20 17 20 20 17 15 16 14
34 37 44 48 50 49 71 98 100 100 100 98 99 100 99 99 98 98 93 91 90 94 100 100 92 86 49 28 28 23 23 28 29 23 19 17 14 13
38 43 50 76 92 76 99 100 100 100 100 99 89 79 86 92 99 98 98 100 98 96 94 100 96 94 91 36 33 44 41 28 24 22 19 17 16 14
49 61 75 80 88 100 100 100 100 99 100 100 99 100 97 97 98 99 100 98 96 96 95 98 97 100 96 84 44 36 29 27 26 24 22 20 19 17
61 89 90 98 100 100 99 100 100 100 100 98 98 98 97 96 97 99 100 100 100 100 97 100 100 100 100 99 96 58 46 36 32 27 24 23 22 25
95 94 98 100 100 99 100 100 71 63 93 92 89 91 96 99 100 100 100 86 86 84 76 96 100 100 100 100 99 56 57 45 38 32 32 29 36 35
75 97 100 100 100 100 100 72 60 62 68 72 87 79 77 86 73 78 92 97 88 70 62 66 78 96 100 100 100 53 76 58 41 39 43 35 33 32
61 97 99 100 100 87 69 61 63 66 70 81 95 90 84 83 92 100 100 100 100 98 99 84 76 82 95 86 100 81 68 96 44 48 53 43 38 40
100 100 100 100 100 95 81 70 71 74 78 89 98 100 100 100 100 100 100 100 99 100 99 100 100 98 99 98 98 70 56 64 56 95 85 53 51 54
100 100 99 100 99 91 82 75 79 77 85 90 88 94 93 92 93 91 94 92 96 89 90 99 100 100 100 99 100 88 73 70 78 99 100 81 60 58
100 100 100 90 76 76 78 76 75 81 86 88 91 92 93 92 95 96 96 99 99 100 94 96 100 100 100 100 89 99 92 87 92 100 100 94 63 64
95 92 80 75 76 80 82 81 80 85 89 92 93 92 93 96 97 97 98 100 99 98 97 96 98 95 100 100 100 97 89 83 84 84 94 95 64 70
69 73 74 76 79 82 82 82 86 90 93 93 96 98 98 98 96 96 97 96 100 100 100 91 94 100 99 99 100 86 74 76 82 88 83 98 76 82
66 68 74 78 80 83 84 85 90 93 94 93 94 97 97 99 98 97 97 97 97 98 97 94 94 96 97 99 94 86 81 76 78 82 84 85 86 99
65 67 76 80 81 84 85 89 94 95 95 95 96 94 95 96 98 97 96 96 96 96 96 94 97 97 93 95 94 91 86 81 80 88 81 73 72 71

GFSNE_850_rhum_135.txt.gz
RH
22 23 25 25 29 24 27 64 95 98 92 100 89 66 58 55 53 58 66 79 96 95 89 83 80 91 94 97 100 99 100 100 100 97 94 93 95 99
26 26 28 28 48 40 36 31 54 48 80 68 81 58 24 15 11 11 12 18 39 74 87 91 86 81 79 86 90 94 95 96 99 98 98 95 95 96
24 23 26 32 54 49 60 62 53 39 50 48 54 56 49 29 23 18 16 15 14 12 14 34 73 80 77 75 80 82 83 82 74 78 89 90 97 96
25 28 35 33 52 65 66 76 80 76 66 48 54 44 39 56 46 32 24 22 20 18 16 15 16 17 26 39 66 64 31 38 65 59 60 71 85 89
25 27 32 36 55 60 70 87 88 93 93 91 87 77 68 57 48 69 66 49 29 23 21 19 19 17 16 15 17 33 28 15 14 33 44 52 63 72
24 27 28 31 32 32 38 78 91 94 89 90 94 93 92 90 86 76 56 73 60 45 31 29 28 26 23 19 17 16 16 17 19 13 10 21 33 55
27 32 31 32 34 34 38 41 53 83 93 95 95 95 91 91 90 91 94 87 75 93 69 54 40 36 30 27 30 23 19 17 16 12 12 10 11 14
30 30 25 35 38 39 41 47 52 57 72 94 93 95 89 94 94 98 99 98 98 99 90 80 66 50 44 41 33 24 23 26 26 20 19 14 11 10
23 25 25 40 40 46 47 63 92 98 99 99 94 96 97 97 99 99 99 100 95 80 85 93 90 83 67 42 29 28 24 26 34 32 27 22 18 14
26 22 25 38 48 69 63 79 94 90 94 98 99 94 94 99 99 92 94 91 83 88 93 92 93 87 77 46 34 34 30 34 35 28 24 22 20 17
27 24 31 38 54 92 94 100 100 100 99 100 100 100 100 99 97 97 93 97 91 83 70 84 70 92 74 46 45 42 52 38 30 28 25 23 22 20
32 35 44 67 77 97 100 100 99 99 98 100 99 92 97 96 96 96 94 94 92 93 87 84 88 92 91 64 60 44 37 33 32 30 29 28 26 24
34 40 60 88 95 100 100 100 100 100 100 74 71 91 88 88 84 93 96 98 96 96 83 96 97 97 99 99 82 50 47 38 38 33 30 29 27 27
34 48 72 75 89 100 99 99 100 99 64 65 74 65 71 81 82 95 100 100 96 96 95 96 100 99 99 97 94 64 51 44 40 33 34 32 31 30
28 33 65 92 100 100 100 100 100 71 62 74 72 78 88 93 87 78 71 92 100 88 82 82 93 96 100 100 100 84 75 43 40 39 42 40 36 30
27 37 55 99 100 100 100 87 81 76 76 79 76 78 86 93 97 100 100 100 100 97 84 88 100 100 100 100 100 86 73 92 50 52 52 45 40 36
39 68 91 94 99 100 99 90 89 85 90 92 100 100 100 100 99 100 100 100 100 100 97 94 100 100 100 100 100 85 68 68 60 66 84 80 47 46
62 82 87 96 100 100 95 85 85 88 96 100 100 100 97 99 100 98 100 100 100 97 99 98 100 100 100 100 99 96 83 79 74 77 99 100 84 49
69 77 92 100 100 86 78 76 78 88 97 96 94 92 92 91 96 98 96 99 98 99 94 94 100 100 100 100 87 92 95 94 100 95 77 97 98 61
42 58 76 94 79 75 76 77 81 82 84 89 91 91 93 96 96 96 98 99 96 96 95 89 90 92 99 92 96 90 83 89 88 85 81 76 83 71
33 46 51 68 70 74 76 79 80 81 85 88 89 91 95 100 97 98 97 99 99 97 96 92 87 96 97 100 99 88 80 84 85 90 90 98 100 86
35 35 45 65 67 73 75 78 82 85 86 89 91 95 98 99 97 96 96 97 96 96 94 92 91 96 96 98 93 89 82 79 81 84 87 95 100 100
35 34 48 64 68 73 76 81 84 87 90 93 95 96 97 97 97 96 96 97 97 96 96 94 96 97 94 97 98 94 88 84 81 83 82 77 82 83

GFSNE_850_rhum_138.txt.gz
RH
16 18 19 20 28 42 50 62 93 97 72 81 68 53 26 14 12 10 9 10 18 44 71 88 86 82 87 90 95 98 96 100 100 100 100 97 100 100
16 18 19 20 26 36 42 50 54 64 64 51 70 52 36 26 20 17 14 11 10 10 11 14 32 65 75 82 85 90 95 95 96 98 98 100 100 100
19 22 23 26 29 37 38 48 58 59 55 35 46 48 36 31 29 26 24 19 15 13 12 11 13 12 13 19 38 60 83 87 91 85 90 92 96 100
22 23 25 28 34 45 46 44 65 68 76 61 56 69 76 65 56 46 44 32 29 20 17 16 18 18 16 15 14 11 13 56 84 84 84 76 84 85
26 27 30 29 30 35 34 41 59 83 79 81 69 69 75 79 88 78 66 62 48 35 34 26 23 21 20 19 17 14 14 12 14 57 82 60 51 67
31 33 33 36 30 33 32 32 38 56 67 63 63 66 65 63 90 88 77 64 52 54 54 41 34 32 28 25 22 18 17 17 16 14 14 48 47 16
28 29 30 33 27 28 36 34 39 42 50 59 72 77 78 70 90 94 91 75 59 75 65 64 41 39 41 35 35 26 21 21 22 18 17 14 15 65
22 24 27 29 30 31 43 38 49 57 73 91 88 84 78 98 95 87 92 100 100 78 68 46 62 36 32 36 34 34 29 22 23 20 19 20 16 15
17 20 23 25 32 41 37 49 61 83 98 100 100 100 100 96 98 97 91 93 99 64 67 58 61 37 40 30 27 28 26 23 25 23 27 25 22 20
17 19 21 22 29 39 51 56 62 67 73 88 96 100 100 100 100 100 100 96 84 72 82 65 42 44 36 29 31 31 33 36 48 39 30 25 22 20
19 22 24 26 28 46 63 64 73 76 88 96 100 96 98 98 100 100 100 100 86 65 53 72 61 53 39 31 32 36 37 39 39 36 33 32 26 23
19 21 24 31 38 50 67 84 89 81 95 97 97 68 65 71 85 88 86 93 98 98 92 85 82 78 79 51 49 49 40 39 39 35 35 35 31 30
21 23 28 36 85 92 94 100 94 99 100 100 70 57 65 73 70 72 80 93 100 100 86 100 100 100 100 100 66 55 48 40 44 39 37 35 35 36
22 24 30 41 78 72 97 100 100 100 100 92 64 62 67 69 74 77 76 80 90 91 84 97 100 100 100 100 100 62 50 47 44 38 38 38 40 36
22 24 31 40 90 98 87 87 100 100 100 74 65 69 75 80 77 79 79 82 86 80 88 86 93 99 100 100 100 100 71 52 52 43 48 53 45 40
22 26 30 36 58 91 96 88 90 79 75 77 78 82 83 85 91 100 100 100 100 88 80 84 88 100 100 100 100 95 78 89 60 61 60 53 45 42
28 32 34 43 54 58 74 89 90 83 85 88 95 100 100 97 94 100 100 100 100 100 91 86 85 97 100 100 100 84 75 73 63 64 71 60 50 49
41 39 42 54 59 62 85 90 87 81 86 98 100 100 97 99 100 93 97 100 100 86 83 83 92 99 99 85 86 85 80 76 73 74 78 80 64 59
78 46 42 48 58 65 71 74 73 78 89 99 99 97 100 100 100 100 93 93 90 88 85 88 92 100 100 97 76 84 90 83 86 84 78 80 77 67
72 47 40 40 56 56 62 66 70 77 91 90 87 92 100 100 100 97 94 95 94 89 86 86 87 89 98 96 100 85 88 85 82 83 84 84 79 73
40 37 41 35 41 52 60 66 73 75 81 84 88 96 100 100 96 95 94 96 100 99 96 91 85 95 95 97 96 78 74 81 88 94 88 88 82 81
35 35 36 40 36 49 60 67 73 76 80 82 88 93 95 100 97 96 95 97 93 95 94 89 86 92 96 97 94 90 83 80 82 88 92 97 99 100
33 34 36 38 37 52 62 69 74 76 80 84 90 93 97 98 96 98 97 94 96 95 95 94 92 96 94 98 97 95 91 85 87 90 78 79 89 92

GFSNE_850_rhum_141.txt.gz
RH
15 17 21 25 33 45 60 69 69 77 58 81 72 36 33 25 20 16 14 12 14 12 11 10 14 35 55 77 86 89 92 96 92 75 94 92 100 93
14 16 19 20 25 35 50 62 71 71 70 52 42 51 44 40 34 26 21 17 15 16 13 12 13 13 10 14 27 49 71 89 95 90 99 99 100 99
14 15 20 23 30 37 46 56 69 74 77 60 54 60 56 53 51 49 38 30 27 25 23 20 20 20 18 14 11 12 13 23 66 86 91 98 92 98
16 19 21 22 24 27 34 44 52 70 74 70 60 56 58 60 64 65 68 50 44 39 42 45 33 27 26 27 17 16 13 12 10 21 68 87 91 91
13 16 19 22 22 25 29 30 35 44 64 68 59 50 57 59 62 69 66 63 55 44 44 47 48 49 38 28 26 20 17 17 15 11 10 14 46 84
14 18 23 23 22 25 26 27 32 34 42 47 46 47 52 54 62 64 54 52 45 46 55 49 41 32 38 41 33 26 22 20 19 15 12 10 10 13
17 20 23 22 19 20 22 27 34 37 45 51 64 68 69 65 68 78 77 62 44 49 42 31 25 29 29 30 39 32 24 22 19 18 14 14 13 10
19 21 31 30 29 32 25 37 40 52 64 89 100 100 82 83 88 89 85 85 86 54 49 23 28 23 23 26 25 27 26 22 20 21 20 17 14 14
20 20 24 30 30 26 26 36 44 55 63 86 92 95 90 94 99 95 97 100 100 98 70 35 33 28 27 24 25 26 27 35 46 27 26 26 25 21
23 20 22 28 27 28 32 34 39 50 59 66 76 90 99 100 100 99 98 100 92 67 70 56 40 36 35 31 23 25 31 38 38 37 30 27 26 23
28 21 22 29 31 29 33 44 47 50 67 73 86 98 95 92 81 94 94 100 100 74 61 72 61 44 34 31 40 36 30 28 31 32 33 31 27 25
40 22 23 30 38 32 29 46 54 50 74 77 85 88 81 58 69 82 87 87 83 94 93 92 83 78 88 59 49 45 39 41 34 30 30 31 30 29
34 22 24 31 42 46 82 71 64 87 92 100 98 87 67 60 60 65 73 82 92 94 85 96 100 98 100 100 80 54 47 43 39 40 37 34 30 30
33 23 27 34 40 44 86 70 96 100 100 100 98 77 67 61 62 67 73 82 85 85 80 85 99 100 100 100 98 70 51 48 46 42 40 37 42 41
28 25 32 38 38 42 71 95 90 88 99 100 87 67 68 69 71 74 75 80 78 80 84 87 93 95 100 100 100 72 69 56 48 50 54 52 48 43
42 30 39 39 38 48 59 65 77 85 92 83 75 79 81 81 86 98 94 100 95 69 73 79 86 100 100 89 91 79 71 81 61 59 63 59 52 49
40 54 51 41 75 60 55 63 70 86 87 81 83 86 98 100 100 100 100 100 100 89 71 73 83 92 92 90 93 77 72 71 67 67 72 68 60 56
46 42 37 46 75 49 54 60 71 89 90 83 81 91 100 100 100 100 100 100 100 87 86 82 83 89 87 73 78 73 74 77 72 74 78 79 68 61
44 38 38 50 55 48 56 70 68 79 81 74 73 90 100 100 100 100 100 96 90 89 81 84 85 94 100 94 77 88 81 82 83 77 71 74 77 72
70 48 40 63 55 52 52 65 73 73 75 74 75 85 98 100 100 100 100 97 96 88 82 84 86 89 99 97 98 81 81 75 79 86 83 81 82 80
57 48 48 55 42 45 44 53 70 69 74 74 81 88 94 100 100 100 94 97 100 99 96 89 84 94 96 97 96 81 76 83 87 93 88 93 90 81
79 45 48 49 43 42 41 47 63 67 72 76 82 86 93 100 100 98 96 98 94 98 96 88 82 89 95 99 94 89 81 79 84 88 94 99 100 100
82 43 44 44 40 39 37 44 61 66 71 77 81 86 96 98 97 96 95 94 96 96 94 89 87 93 93 97 98 99 97 88 88 89 80 82 96 96

GFSNE_850_rhum_144.txt.gz
RH
14 11 13 16 19 25 34 45 61 68 48 30 34 36 28 22 28 30 26 23 23 22 17 13 12 12 12 11 23 52 74 87 94 100 100 97 92 99
20 13 14 17 21 25 31 41 53 67 74 43 37 39 42 38 36 36 38 38 36 43 66 30 19 14 13 13 11 10 15 42 75 96 98 100 100 100
26 17 14 17 21 25 30 37 46 55 59 35 38 41 37 37 36 42 42 42 48 48 69 80 46 30 25 30 21 12 10 8 12 31 73 90 98 99
35 22 17 20 22 23 26 31 38 47 54 44 39 41 41 38 45 43 46 48 47 48 46 61 55 51 39 27 27 22 16 13 10 9 9 12 34 83
43 28 21 24 26 28 30 34 37 36 41 49 47 40 39 40 42 46 47 53 50 46 44 51 54 38 36 35 26 25 21 17 16 14 12 10 11 10
48 36 25 26 31 34 32 34 34 32 36 40 43 42 47 53 51 49 47 53 46 46 57 49 38 38 45 38 34 24 21 21 18 16 13 13 12 10
53 43 29 26 31 32 28 27 30 31 36 44 54 66 73 73 64 67 68 64 46 43 37 34 31 28 33 29 28 24 21 17 17 15 13 13 12 11
55 50 59 26 26 36 36 40 34 35 41 60 63 89 77 81 76 83 84 78 72 50 47 22 32 29 31 35 34 33 26 20 18 17 16 12 13 13
57 56 96 44 25 35 37 40 42 58 82 61 82 80 83 81 94 94 92 90 88 69 71 27 29 25 29 32 28 26 28 40 31 28 23 19 16 12
63 60 99 61 24 37 40 36 33 41 53 62 71 73 84 96 100 100 100 97 88 68 72 56 37 32 28 28 25 30 44 38 33 28 27 23 18 16
71 62 96 86 28 36 42 33 33 37 53 65 73 84 100 100 96 89 68 83 92 60 54 65 53 47 38 32 33 30 28 33 32 29 28 26 24 18
72 64 88 97 36 36 39 36 35 37 67 70 75 87 95 96 88 69 80 87 87 80 62 81 73 74 70 48 39 35 42 40 38 38 34 29 26 23
75 72 89 91 32 36 38 40 37 72 78 84 95 100 99 97 79 66 67 72 79 82 82 100 96 91 100 94 61 51 53 52 46 39 42 41 34 31
94 93 98 96 37 38 48 47 74 96 97 100 100 99 96 91 71 67 68 74 79 81 82 91 99 96 100 98 94 59 63 60 59 55 50 46 48 48
92 97 99 53 36 40 41 42 90 95 100 97 90 95 96 77 75 76 74 77 76 78 84 92 93 93 98 98 99 75 81 59 61 59 64 63 59 53
98 98 95 80 47 41 40 51 87 85 87 85 86 89 82 85 90 96 95 95 79 67 78 83 87 92 90 84 92 85 74 83 65 64 65 62 60 57
98 97 97 94 56 42 48 78 78 71 79 78 92 86 84 92 99 100 100 100 94 75 69 74 84 93 93 89 86 76 68 67 69 68 72 70 62 61
98 97 96 64 48 49 56 75 58 72 65 82 95 92 86 99 100 100 100 100 100 84 77 76 82 86 78 67 71 72 74 73 71 75 75 76 66 58
97 97 90 63 41 43 58 65 56 62 69 84 88 81 85 97 100 100 100 100 99 89 82 85 82 87 96 92 71 82 89 75 77 73 73 77 81 68
97 96 95 83 42 42 66 61 55 58 69 77 76 77 91 100 100 100 100 100 94 87 82 82 83 90 100 99 96 73 76 79 80 84 78 82 85 77
97 96 96 88 60 54 72 52 50 55 61 72 70 78 89 100 100 100 100 100 100 100 94 87 85 94 98 98 94 78 69 78 86 90 83 92 90 82
96 96 96 92 61 66 68 50 49 54 53 64 69 79 92 100 100 100 100 98 97 97 94 86 84 85 84 96 97 88 76 71 74 86 90 100 100 100
96 96 97 86 69 72 61 48 45 46 52 66 72 79 87 94 98 97 98 98 98 97 96 93 86 86 88 94 98 99 88 84 83 84 73 74 84 87